[[{"header":{"parameterUnit":"m.s-1","parameterCategory":1,"la1":30.2991,"la2":30.254,"lo1":-89.0895,"lo2":-89.0444,"dy":0.0017,"dx":0.0017,"nx":28,"ny":28,"refTime":"2025-03-28T21:00:00:Z","depth":0,"parameterNumber":2,"parameterNumberName":"U-component_of_WINDS"},"data":[0,0,0,0,0,0,0,0,0,0,0,0,0,0,0,0,0,0,0,0,0,0,0,0,0,0,0,0,0,0,0,0,0,0,0,0,0,0,0,0,0,0,0,0,0,0,0,0,0,0,0,0,0,0,0,0,0,0,-7.1218,-7.1218,0,-7.1227,-7.1227,-7.1227,-7.1169,-7.1167,-7.1165,-7.1164,-7.1173,-7.1175,-7.1177,0,0,0,0,0,0,0,0,0,0,0,0,0,-7.1151,-7.1153,-7.1218,-7.1218,-7.1218,-7.1227,-7.1227,-7.1227,-7.1169,-7.1167,-7.1165,-7.1163,-7.1173,-7.1175,-7.1177,0,0,0,0,0,0,0,0,0,0,0,0,0,-7.1172,-7.1153,-7.1217,-7.119,-7.1187,-7.1227,-7.1227,-7.1227,-7.1169,-7.1167,-7.1164,-7.1162,-7.1172,-7.1174,-7.1177,-7.1244,0,0,-7.1185,-7.1187,0,0,0,0,0,0,0,0,-7.1171,-7.1175,-7.1194,-7.1192,-7.1189,-7.1194,-7.1207,-7.1233,-7.117,-7.1176,-7.1164,-7.1161,-7.1182,-7.1184,-7.1191,-7.1244,-7.1245,-7.1186,-7.1187,-7.1188,-7.1189,0,0,0,0,0,0,0,-7.117,-7.1174,-7.1221,-7.1194,-7.1191,-7.1178,-7.1178,-7.1212,-7.1193,-7.1175,-7.1171,-7.1173,-7.118,-7.1189,-7.1191,-7.1245,-7.1186,-7.1188,-7.119,-7.1191,-7.1355,-7.1358,0,0,0,0,0,0,-7.1172,-7.1173,-7.1221,-7.1222,-7.1174,-7.1181,-7.1181,-7.1195,-7.1192,-7.119,-7.1175,-7.117,-7.1185,-7.1188,-7.1191,-7.1269,-7.1188,-7.1191,-7.1192,-7.1353,-7.1356,-7.1359,0,0,0,0,0,0,-7.1171,-7.1177,-7.1221,-7.1196,-7.1201,-7.1185,-7.1201,-7.1197,-7.1204,-7.1192,-7.1189,-7.1187,-7.1183,-7.1187,-7.1232,-7.1269,-7.1192,-7.1195,-7.1349,-7.1354,-7.1358,-7.1426,0,0,0,0,0,0,-7.1169,-7.1177,-7.1201,-7.1197,-7.1202,-7.126,-7.1203,-7.1199,-7.1209,-7.1203,-7.1202,-7.12,-7.1182,-7.1228,-7.1234,-7.1271,-7.1197,-7.1346,-7.1351,-7.1356,-7.142,-7.1432,-7.1442,0,0,0,0,0,-7.1167,-7.1219,-7.1202,-7.1208,-7.1232,-7.1262,-7.1265,-7.1243,-7.1213,-7.1237,-7.123,-7.12,-7.1265,-7.1233,-7.124,-7.1278,-7.1343,-7.135,-7.1356,-7.1415,-7.143,-7.1442,0,0,0,0,0,0,-7.1226,-7.1218,-7.1199,-7.1251,-7.1258,-7.1252,-7.1282,-7.1259,-7.1274,-7.1268,-7.124,-7.1241,-7.129,-7.1289,-7.1254,-7.1343,-7.1299,-7.1306,-7.1342,-7.1355,-7.1366,-7.1364,-7.1199,0,0,0,0,0,-7.1245,-7.127,-7.1262,-7.1309,-7.1314,-7.1298,-7.131,-7.1294,-7.1299,-7.1302,-7.1297,-7.1304,-7.1326,-7.1341,-7.1361,-7.1421,-7.1421,-7.1451,-7.1462,-7.1471,-7.1477,-7.151,-7.1524,-7.1379,-7.1379,-7.1379,0,0,-7.1285,-7.1284,-7.1301,-7.1321,-7.1324,-7.1352,-7.1301,-7.1331,-7.1351,-7.1306,-7.1347,-7.1346,-7.1352,-7.1405,-7.1428,-7.1405,-7.1518,-7.1479,-7.1486,-7.1487,-7.1518,-7.1532,-7.1544,-7.1384,-7.1383,-7.1382,0,0,-7.137,-7.1372,-7.1412,-7.1417,-7.1424,-7.1413,-7.1424,-7.1423,-7.142,-7.1461,-7.1429,-7.1454,-7.1492,-7.1498,-7.1506,-7.16,-7.1572,-7.1607,-7.1662,-7.1695,-7.1706,-7.1716,-7.1749,-7.1761,-7.1614,-7.1614,-7.1614,0,-7.1418,-7.1457,-7.1435,-7.1469,-7.1479,-7.1443,-7.1484,-7.149,-7.1502,-7.1511,-7.1486,-7.1535,-7.1536,-7.1591,-7.1614,-7.1622,-7.1633,-7.1605,-7.1707,-7.1716,-7.1725,-7.1756,-7.1769,-7.1618,-7.1618,-7.1617,-7.1617,0,-7.1516,-7.1544,-7.1576,-7.159,-7.1605,-7.1642,-7.1627,-7.1645,-7.1629,-7.1622,-7.1666,-7.1668,-7.1687,-7.17,-7.1683,-7.1753,-7.1739,-7.1711,-7.1665,-7.1743,-7.1772,-7.1784,-7.1624,-7.1622,-7.1621,-7.162,0,0,-7.1633,-7.1639,-7.1651,-7.1657,-7.1664,-7.1686,-7.1723,-7.1743,-7.1759,-7.1771,-7.1801,-7.1837,-7.1812,-7.1821,-7.1806,-7.1835,-7.1909,-7.1803,-7.1803,-7.1822,-7.1987,-7.2006,-7.202,-7.1893,-7.1896,-7.1897,-7.1986,0,-7.1716,-7.1778,-7.1762,-7.1825,-7.1851,-7.1819,-7.1852,-7.186,-7.1856,-7.1879,-7.1875,-7.19,-7.1865,-7.1871,-7.1899,-7.1894,-7.1942,-7.1888,-7.1921,-7.1922,-7.1917,-7.2035,-7.2055,-7.2139,-7.1997,-7.1999,-7.2,0,-7.182,-7.1837,-7.1902,-7.1907,-7.1917,-7.1946,-7.1965,-7.1988,-7.1998,-7.1993,-7.2006,-7.1986,-7.2024,-7.1981,-7.2033,-7.1997,-7.201,-7.201,-7.2013,-7.2013,-7.1964,-7.2037,-7.2165,-7.2177,-7.2018,-7.2017,-7.2015,0,-7.1898,-7.1938,-7.1982,-7.1989,-7.1996,-7.2018,-7.2022,-7.2029,-7.2044,-7.2061,-7.207,-7.2092,-7.2103,-7.2121,-7.2108,-7.2078,-7.2163,-7.2118,-7.2159,-7.216,-7.2175,-7.2174,-7.2306,-7.2188,-7.2188,-7.2188,-7.2187,0,-7.1991,-7.2032,-7.2018,-7.2044,-7.209,-7.2073,-7.2119,-7.212,-7.2128,-7.2155,-7.213,-7.2156,-7.2139,-7.2164,-7.2155,-7.2199,-7.2205,-7.2202,-7.2199,-7.2203,-7.2203,-7.2209,-7.2202,-7.2191,-7.219,-7.219,-7.2189,0,-7.2084,-7.2076,-7.2123,-7.2127,-7.213,-7.2163,-7.2167,-7.2193,-7.2189,-7.2225,-7.2232,-7.2226,-7.2254,-7.2245,-7.2275,-7.2269,-7.2326,-7.2316,-7.2322,-7.2319,-7.236,-7.2356,-7.2498,-7.2516,-7.2389,-7.239,-7.2391,0,-7.2142,-7.2173,-7.2182,-7.2199,-7.2206,-7.2233,-7.2249,-7.2235,-7.2252,-7.2268,-7.2292,-7.2319,-7.2339,-7.2388,-7.2386,-7.241,-7.2399,-7.2448,-7.2402,-7.2406,-7.2398,-7.2396,-7.2399,-7.2455,-7.2457,-7.2458,-7.2459,0,-7.2247,-7.2243,-7.2265,-7.2289,-7.2308,-7.2325,-7.234,-7.2356,-7.2343,-7.2364,-7.2394,-7.241,-7.2443,-7.247,-7.2493,-7.2497,-7.2476,-7.2474,-7.2485,-7.2488,-7.249,-7.2489,-7.2345,-7.247,-7.2469,-7.2468,-7.2467,-7.2467,-7.2323,-7.235,-7.2362,-7.2389,-7.24,-7.2415,-7.244,-7.2441,-7.2466,-7.2491,-7.2483,-7.2517,-7.2529,-7.2557,-7.2566,-7.2593,-7.2574,-7.259,-7.2593,-7.2597,-7.2602,-7.2489,-7.2597,-7.2597,-7.2597,-7.2596,-7.2596,0,-7.2426,-7.2432,-7.2458,-7.2481,-7.2503,-7.2484,-7.2501,-7.252,-7.2551,-7.2565,-7.2587,-7.2622,-7.265,-7.2652,-7.2678,-7.27,-7.2691,-7.2707,-7.2704,-7.2705,-7.2617,-7.2605,-7.2713,-7.2713,-7.2713,-7.2713,-7.2713,-7.2713,-7.2481,-7.2526,-7.2524,-7.2575,-7.2581,-7.2615,-7.2627,-7.2641,-7.2652,-7.2693,-7.2716,-7.2719,-7.2728,-7.2755,-7.278,-7.278,-7.279,-7.281,-7.2806,-7.2723,-7.2711,-7.27,-7.2688,-7.2812,-7.2813,-7.2891,-7.2892,-7.2893]},{"header":{"parameterUnit":"m.s-1","parameterCategory":1,"la1":30.2991,"la2":30.254,"lo1":-89.0895,"lo2":-89.0444,"dy":0.0017,"dx":0.0017,"nx":28,"ny":28,"refTime":"2025-03-28T21:00:00:Z","depth":0,"parameterNumber":3,"parameterNumberName":"V-component_of_WINDS"},"data":[0,0,0,0,0,0,0,0,0,0,0,0,0,0,0,0,0,0,0,0,0,0,0,0,0,0,0,0,0,0,0,0,0,0,0,0,0,0,0,0,0,0,0,0,0,0,0,0,0,0,0,0,0,0,0,0,0,0,4.853,4.8531,0,4.8645,4.8646,4.8648,4.8722,4.8723,4.8723,4.8724,4.8836,4.8838,4.884,0,0,0,0,0,0,0,0,0,0,0,0,0,4.8373,4.8376,4.853,4.8532,4.8533,4.8645,4.8647,4.8648,4.8722,4.8723,4.8724,4.8724,4.8835,4.8838,4.8841,0,0,0,0,0,0,0,0,0,0,0,0,0,4.846,4.8377,4.853,4.8584,4.859,4.8645,4.8647,4.8649,4.8722,4.8723,4.8724,4.8724,4.8834,4.8837,4.8841,4.885,0,0,4.8853,4.8854,0,0,0,0,0,0,0,0,4.8455,4.8465,4.8574,4.858,4.8587,4.867,4.8632,4.8716,4.8722,4.8672,4.8724,4.8725,4.878,4.8788,4.8808,4.8855,4.886,4.8853,4.8855,4.8857,4.8858,0,0,0,0,0,0,0,4.8449,4.8461,4.8575,4.8576,4.8584,4.8602,4.8615,4.8648,4.872,4.8676,4.8682,4.8695,4.8783,4.8804,4.8811,4.8861,4.8853,4.8856,4.8859,4.886,4.8927,4.8927,0,0,0,0,0,0,4.8435,4.8455,4.8572,4.8579,4.8522,4.8604,4.8619,4.8643,4.872,4.8732,4.8694,4.8698,4.8797,4.8806,4.8815,4.8834,4.8857,4.886,4.8863,4.8928,4.8927,4.8927,0,0,0,0,0,0,4.8431,4.8444,4.8567,4.8519,4.8536,4.8606,4.8632,4.8645,4.8665,4.8733,4.8746,4.8702,4.8798,4.881,4.8842,4.8839,4.8862,4.8866,4.8928,4.8928,4.8927,4.8869,0,0,0,0,0,0,4.8426,4.8443,4.8447,4.8519,4.8538,4.8593,4.8632,4.8646,4.8672,4.8679,4.8744,4.8756,4.8799,4.8836,4.8846,4.8844,4.8868,4.8929,4.8928,4.8927,4.8871,4.8866,4.8862,0,0,0,0,0,4.842,4.8423,4.8446,4.846,4.8545,4.8592,4.8603,4.8655,4.8672,4.8677,4.8721,4.8754,4.8838,4.8839,4.885,4.885,4.8929,4.8928,4.8927,4.8874,4.8867,4.8862,0,0,0,0,0,0,4.8345,4.8433,4.846,4.8486,4.8532,4.8605,4.8612,4.8646,4.8686,4.8689,4.875,4.8765,4.8792,4.8824,4.8824,4.8865,4.8888,4.8889,4.8843,4.8837,4.8833,4.8824,4.8872,0,0,0,0,0,4.8332,4.8365,4.8439,4.8455,4.8477,4.8541,4.8563,4.86,4.8648,4.8667,4.8714,4.8758,4.8796,4.8818,4.8855,4.8877,4.8894,4.8883,4.8878,4.8873,4.8874,4.8892,4.8888,4.8923,4.8923,4.8923,0,0,4.8304,4.8357,4.8373,4.8442,4.8481,4.8514,4.8556,4.8587,4.8612,4.8671,4.8706,4.8742,4.8797,4.8825,4.884,4.8853,4.8869,4.8872,4.8868,4.8871,4.889,4.8887,4.8884,4.8922,4.8922,4.8923,0,0,4.8271,4.8313,4.8333,4.8374,4.8435,4.8478,4.8483,4.8552,4.858,4.8617,4.8664,4.8694,4.8755,4.8793,4.882,4.8808,4.8841,4.8818,4.8793,4.881,4.8807,4.8805,4.8803,4.8802,4.8818,4.8818,4.8818,0,4.8228,4.828,4.8339,4.8369,4.84,4.8459,4.8481,4.8516,4.8585,4.8604,4.8619,4.8701,4.8741,4.8781,4.8779,4.8798,4.8807,4.8811,4.8803,4.8802,4.8801,4.88,4.8799,4.8815,4.8816,4.8816,4.8816,0,4.8226,4.8262,4.8271,4.8341,4.8372,4.8397,4.846,4.8485,4.852,4.8562,4.8601,4.8652,4.8703,4.8715,4.8748,4.8761,4.8768,4.8792,4.8816,4.8794,4.8794,4.8794,4.8811,4.8812,4.8813,4.8814,0,0,4.8145,4.8252,4.8254,4.8289,4.8363,4.8391,4.8421,4.8474,4.8495,4.8541,4.8569,4.8622,4.8647,4.8678,4.8716,4.8731,4.8722,4.8753,4.8756,4.8748,4.8744,4.8726,4.8725,4.8745,4.8745,4.8745,4.874,0,4.8125,4.8183,4.8239,4.8277,4.8313,4.8372,4.8399,4.8447,4.8488,4.8524,4.8569,4.8607,4.8635,4.8655,4.8672,4.8719,4.8722,4.872,4.8771,4.8772,4.8756,4.8724,4.8705,4.8698,4.874,4.874,4.874,0,4.8107,4.8156,4.8199,4.8275,4.8292,4.8314,4.837,4.8403,4.8461,4.849,4.8528,4.857,4.8605,4.8626,4.8676,4.8674,4.8698,4.8725,4.8726,4.8733,4.8755,4.8732,4.8696,4.8696,4.874,4.874,4.874,0,4.8047,4.8123,4.816,4.8187,4.8276,4.8291,4.8328,4.8387,4.8417,4.8465,4.8486,4.8537,4.8564,4.8603,4.8658,4.8668,4.8704,4.8728,4.873,4.8728,4.8734,4.8733,4.8703,4.8748,4.8748,4.8748,4.8748,0,4.8019,4.8043,4.8135,4.8157,4.8188,4.8253,4.828,4.8323,4.8375,4.8408,4.8461,4.849,4.856,4.8598,4.8641,4.8678,4.8689,4.8714,4.8726,4.871,4.8707,4.8727,4.8729,4.8747,4.8747,4.8748,4.8748,0,4.7956,4.8019,4.8063,4.8146,4.8167,4.8186,4.8256,4.8281,4.8327,4.8368,4.8381,4.8452,4.85,4.856,4.8624,4.8654,4.8687,4.8703,4.8668,4.8675,4.8674,4.8674,4.8656,4.8659,4.87,4.8699,4.8699,0,4.7934,4.7955,4.8042,4.8069,4.8106,4.8148,4.8181,4.8246,4.8278,4.8348,4.8365,4.8417,4.8463,4.8536,4.8594,4.8645,4.8664,4.8654,4.8671,4.8657,4.8666,4.8665,4.8668,4.865,4.8649,4.8648,4.8648,0,4.789,4.7921,4.7967,4.8026,4.8064,4.8112,4.8162,4.8181,4.8258,4.8291,4.8342,4.8378,4.8448,4.8499,4.8559,4.8597,4.8636,4.8642,4.8646,4.863,4.861,4.8624,4.8658,4.8642,4.8643,4.8643,4.8643,4.8644,4.7849,4.7872,4.7938,4.7989,4.8035,4.8082,4.8111,4.8163,4.8208,4.8272,4.8308,4.8359,4.8419,4.8504,4.8542,4.8582,4.8596,4.86,4.8602,4.8602,4.8598,4.8604,4.8593,4.8593,4.8594,4.8594,4.8594,0,4.7809,4.7856,4.7903,4.7974,4.8015,4.8051,4.811,4.8141,4.8186,4.8241,4.8286,4.8347,4.8399,4.8463,4.8519,4.854,4.8559,4.8553,4.8552,4.8561,4.8582,4.8574,4.8536,4.8536,4.8536,4.8536,4.8536,4.8536,4.7794,4.7836,4.7876,4.7943,4.799,4.8043,4.8074,4.8118,4.8163,4.823,4.8275,4.8317,4.8376,4.8438,4.8488,4.8506,4.8525,4.8513,4.8536,4.8554,4.8559,4.8563,4.8557,4.8516,4.8516,4.8512,4.8512,4.8512]}]]